When you browse on this site, cookies collect data to enhance your experience and personalize the content and advertising you see.
Visit our Privacy Policy to learn more. By continuing to use the site, you agree to this use of cookies and data.
  • In Spain
  • List of Countries
  • For 7 days
  • Water Temperature
  • Satellite Maps
  • Weather Map
  • Weather Widgets
  • user-avatar
    Login

    Hourly Weather Caipan

    Today, 21 May, Tuesday

    Time Temperature Precipitation Wind Pressure Humidity
    00:00 +23°C° 0 mm 1 mps 665 mmHg 54%
    01:00 +23°C° 0 mm 1 mps 665 mmHg 53%
    02:00 +23°C° 0 mm 1 mps 665 mmHg 53%
    03:00 +22°C° 0 mm 1 mps 664 mmHg 52%
    04:00 +22°C° 0 mm 1 mps 664 mmHg 51%
    05:00 +22°C° 0 mm 1 mps 664 mmHg 50%
    06:00 +21°C° 0 mm 2 mps 664 mmHg 48%
    07:00 +25°C° 0 mm 2 mps 665 mmHg 46%
    08:00 +27°C° 0 mm 2 mps 665 mmHg 45%
    09:00 +30°C° 0 mm 3 mps 666 mmHg 43%
    10:00 +32°C° 0 mm 2 mps 666 mmHg 39%
    11:00 +35°C° 0 mm 2 mps 666 mmHg 36%
    12:00 +36°C° 0 mm 2 mps 666 mmHg 32%
    13:00 +37°C° 0 mm 2 mps 666 mmHg 31%
    14:00 +36°C° 0 mm 1 mps 665 mmHg 31%
    15:00 +36°C° 0 mm 1 mps 665 mmHg 30%
    16:00 +36°C° 0 mm 2 mps 664 mmHg 33%
    17:00 +35°C° 0 mm 2 mps 664 mmHg 36%
    18:00 +34°C° 0 mm 3 mps 664 mmHg 39%
    19:00 +30°C° 0.3 mm 2 mps 664 mmHg 47%
    20:00 +28°C° 0.3 mm 2 mps 664 mmHg 55%
    21:00 +26°C° 0.3 mm 1 mps 664 mmHg 62%
    22:00 +26°C° 0.2 mm 1 mps 665 mmHg 63%
    23:00 +26°C° 0.2 mm 1 mps 665 mmHg 64%

    Tomorrow, 22 May, Wednesday

    Time Temperature Precipitation Wind Pressure Humidity
    00:00 +24°C° 0.2 mm 0 mps 666 mmHg 65%
    01:00 +23°C° 0 mm 0 mps 665 mmHg 67%
    02:00 +22°C° 0 mm 0 mps 665 mmHg 69%
    03:00 +24°C° 0 mm 1 mps 664 mmHg 71%
    04:00 +23°C° 0 mm 1 mps 664 mmHg 71%
    05:00 +23°C° 0 mm 1 mps 664 mmHg 71%
    06:00 +23°C° 0 mm 1 mps 664 mmHg 72%
    07:00 +25°C° 0 mm 1 mps 665 mmHg 63%
    08:00 +28°C° 0 mm 1 mps 666 mmHg 54%
    09:00 +30°C° 0 mm 1 mps 667 mmHg 45%
    10:00 +32°C° 0 mm 1 mps 667 mmHg 39%
    11:00 +34°C° 0 mm 1 mps 667 mmHg 34%
    12:00 +36°C° 0 mm 2 mps 667 mmHg 29%
    13:00 +36°C° 0 mm 2 mps 667 mmHg 27%
    14:00 +37°C° 0 mm 3 mps 666 mmHg 25%
    15:00 +37°C° 0 mm 4 mps 666 mmHg 24%
    16:00 +35°C° 0 mm 4 mps 665 mmHg 27%
    17:00 +34°C° 0 mm 4 mps 665 mmHg 30%
    18:00 +33°C° 0 mm 3 mps 665 mmHg 34%
    19:00 +29°C° 0 mm 3 mps 665 mmHg 43%
    20:00 +27°C° 0 mm 2 mps 665 mmHg 52%
    21:00 +25°C° 0 mm 2 mps 666 mmHg 61%
    22:00 +25°C° 0 mm 1 mps 666 mmHg 66%
    23:00 +25°C° 0 mm 1 mps 666 mmHg 72%

    Day after tomorrow, 23 May, Thursday

    Time Temperature Precipitation Wind Pressure Humidity
    00:00 +24°C° 0 mm 1 mps 667 mmHg 77%
    01:00 +24°C° 0 mm 1 mps 666 mmHg 79%
    02:00 +24°C° 0 mm 1 mps 666 mmHg 81%
    03:00 +23°C° 0 mm 1 mps 666 mmHg 83%
    04:00 +21°C° 0 mm 0 mps 666 mmHg 83%
    05:00 +21°C° 0 mm 0 mps 666 mmHg 84%
    06:00 +20°C° 0 mm 0 mps 666 mmHg 85%
    07:00 +23°C° 0 mm 0 mps 666 mmHg 76%
    08:00 +27°C° 0 mm 1 mps 667 mmHg 67%
    09:00 +29°C° 0 mm 1 mps 668 mmHg 57%
    10:00 +30°C° 0 mm 2 mps 668 mmHg 52%
    11:00 +31°C° 0 mm 2 mps 668 mmHg 46%
    12:00 +34°C° 0 mm 3 mps 668 mmHg 41%
    13:00 +34°C° 0 mm 3 mps 667 mmHg 39%
    14:00 +34°C° 0 mm 4 mps 667 mmHg 38%
    15:00 +34°C° 0 mm 4 mps 666 mmHg 36%
    16:00 +33°C° 0.1 mm 4 mps 666 mmHg 45%
    17:00 +30°C° 0.1 mm 4 mps 666 mmHg 53%
    18:00 +28°C° 0.1 mm 4 mps 665 mmHg 61%
    19:00 +27°C° 0.3 mm 3 mps 666 mmHg 68%
    20:00 +26°C° 0.3 mm 3 mps 666 mmHg 75%
    21:00 +25°C° 0.3 mm 2 mps 667 mmHg 82%
    22:00 +24°C° 0.1 mm 2 mps 667 mmHg 83%
    23:00 +24°C° 0.1 mm 2 mps 667 mmHg 84%

    24 May, Friday

    Time Temperature Precipitation Wind Pressure Humidity
    00:00 +24°C° 0.1 mm 2 mps 667 mmHg 85%
    01:00 +23°C° 0 mm 1 mps 667 mmHg 85%
    02:00 +23°C° 0 mm 1 mps 666 mmHg 86%
    03:00 +23°C° 0 mm 1 mps 666 mmHg 86%
    04:00 +22°C° 0 mm 1 mps 666 mmHg 87%
    05:00 +22°C° 0 mm 1 mps 666 mmHg 88%
    06:00 +21°C° 0 mm 1 mps 666 mmHg 89%
    07:00 +23°C° 0 mm 1 mps 667 mmHg 77%
    08:00 +25°C° 0 mm 1 mps 668 mmHg 65%
    09:00 +27°C° 0 mm 2 mps 668 mmHg 54%
    10:00 +29°C° 0 mm 2 mps 668 mmHg 48%
    11:00 +30°C° 0 mm 3 mps 668 mmHg 43%
    12:00 +33°C° 0 mm 3 mps 668 mmHg 37%
    13:00 +33°C° 0 mm 4 mps 668 mmHg 38%
    14:00 +33°C° 0 mm 4 mps 667 mmHg 39%
    15:00 +33°C° 0 mm 4 mps 667 mmHg 40%
    16:00 +32°C° 0.1 mm 4 mps 667 mmHg 46%
    17:00 +29°C° 0.1 mm 4 mps 666 mmHg 53%
    18:00 +28°C° 0.1 mm 3 mps 666 mmHg 59%
    19:00 +27°C° 0 mm 3 mps 667 mmHg 66%
    20:00 +26°C° 0 mm 3 mps 667 mmHg 72%
    21:00 +24°C° 0 mm 2 mps 667 mmHg 78%
    22:00 +24°C° 0 mm 2 mps 668 mmHg 81%
    23:00 +23°C° 0 mm 1 mps 668 mmHg 83%

    25 May, Saturday

    Time Temperature Precipitation Wind Pressure Humidity
    00:00 +23°C° 0 mm 1 mps 668 mmHg 85%
    01:00 +22°C° 0 mm 1 mps 667 mmHg 86%
    02:00 +22°C° 0 mm 1 mps 667 mmHg 87%
    03:00 +22°C° 0 mm 1 mps 666 mmHg 88%
    04:00 +21°C° 0 mm 1 mps 666 mmHg 88%
    05:00 +21°C° 0 mm 1 mps 666 mmHg 88%
    06:00 +20°C° 0 mm 1 mps 667 mmHg 88%
    07:00 +23°C° 0 mm 1 mps 667 mmHg 78%
    08:00 +25°C° 0 mm 2 mps 668 mmHg 68%
    09:00 +27°C° 0 mm 2 mps 669 mmHg 58%
    10:00 +28°C° 0 mm 3 mps 669 mmHg 54%
    11:00 +29°C° 0 mm 3 mps 669 mmHg 49%
    12:00 +32°C° 0 mm 4 mps 669 mmHg 45%
    13:00 +32°C° 0 mm 4 mps 668 mmHg 44%
    14:00 +33°C° 0 mm 4 mps 668 mmHg 42%
    15:00 +33°C° 0 mm 4 mps 667 mmHg 40%
    16:00 +32°C° 0 mm 4 mps 667 mmHg 45%
    17:00 +30°C° 0 mm 4 mps 667 mmHg 50%
    18:00 +28°C° 0 mm 4 mps 667 mmHg 56%
    19:00 +27°C° 0.1 mm 3 mps 667 mmHg 63%
    20:00 +26°C° 0.1 mm 3 mps 668 mmHg 71%
    21:00 +24°C° 0.1 mm 2 mps 668 mmHg 79%
    22:00 +24°C° 0 mm 2 mps 668 mmHg 81%
    23:00 +23°C° 0 mm 2 mps 668 mmHg 83%

    26 May, Sunday

    Time Temperature Precipitation Wind Pressure Humidity
    00:00 +23°C° 0 mm 2 mps 668 mmHg 85%
    01:00 +21°C° 0 mm 2 mps 668 mmHg 86%
    02:00 +21°C° 0 mm 2 mps 668 mmHg 87%
    03:00 +21°C° 0 mm 1 mps 667 mmHg 88%
    04:00 +21°C° 0 mm 1 mps 667 mmHg 88%
    05:00 +21°C° 0 mm 1 mps 667 mmHg 88%
    06:00 +20°C° 0 mm 1 mps 667 mmHg 88%
    07:00 +21°C° 0 mm 2 mps 668 mmHg 77%
    08:00 +25°C° 0 mm 2 mps 669 mmHg 65%
    09:00 +27°C° 0 mm 2 mps 670 mmHg 53%
    10:00 +28°C° 0 mm 3 mps 670 mmHg 47%
    11:00 +30°C° 0 mm 3 mps 670 mmHg 41%
    12:00 +33°C° 0 mm 4 mps 670 mmHg 35%
    13:00 +33°C° 0 mm 4 mps 669 mmHg 36%
    14:00 +33°C° 0 mm 4 mps 669 mmHg 36%
    15:00 +33°C° 0 mm 5 mps 668 mmHg 37%
    16:00 +32°C° 0 mm 5 mps 668 mmHg 44%
    17:00 +29°C° 0 mm 4 mps 667 mmHg 51%
    18:00 +28°C° 0 mm 4 mps 667 mmHg 58%
    19:00 +26°C° 0.1 mm 4 mps 668 mmHg 65%
    20:00 +25°C° 0.1 mm 3 mps 668 mmHg 73%
    21:00 +24°C° 0.1 mm 2 mps 669 mmHg 80%
    22:00 +23°C° 0 mm 2 mps 669 mmHg 82%
    23:00 +21°C° 0 mm 2 mps 668 mmHg 84%
    Show more